Location: Unspecified
(0.0000°N, 0.0000°E)
Time: 06:14:36
(UTC+00:00)

Vanguard 2 Rocket - Pass Details

Date: 06 October 2023
Orbit: 552 x 3312 km, 32.9° (Epoch: 06 December)

Event Time Altitude Azimuth Distance (km) Brightness Sun altitude
Rises 07:46:28 0° 281° (W) 4,244 9.8 29.4°
Reaches altitude 10° 07:49:48 10° 296° (WNW) 3,657 9.6 30.3°
Maximum altitude 07:57:11 23° 344° (NNW) 3,534 9.9 32.1°
Drops below altitude 10° 08:07:50 10° 29° (NNE) 5,408 11.2 34.7°
Sets 08:14:30 0° 42° (NE) 6,855 11.8 36.4°
